Location: Piolenc
(44.1794°N, 4.7641°E)
Time: 04:50:27
(UTC+00:00)

SL-4 R/B - Pass Details

Date: 27 January 2021
Orbit: 427 x 664 km, 51.6° (Epoch: 27 February)

Event Time Altitude Azimuth Distance (km) Brightness Sun altitude
Exits shadow 04:55:18 51° 24° (NNE) 637 2.4 -23.0°
Drops below altitude 10° 04:58:33 10° 55° (NE) 1,764 5.3 -22.5°
Sets 05:00:53 0° 59° (ENE) 2,702 6.4 -22.0°
